Location: Croisilles
(50.1998°N, 2.8793°E)
Time: 13:09:08
(UTC+00:00)

Cosmos 1898 Rocket - Pass Details

Date: 21 January 2021
Orbit: 754 x 783 km, 74.0° (Epoch: 26 February)

Event Time Altitude Azimuth Distance (km) Brightness Sun altitude
Rises 19:22:10 0° 206° (SSW) 3,240 7.0 -28.1°
Reaches altitude 10° 19:24:33 10° 208° (SSW) 2,313 6.2 -28.5°
Enters shadow 19:28:56 61° 229° (SW) 871 3.8 -29.2°
